User: anonymous   Login
Location: Unspecified
(0.0000°N, 0.0000°E)
Time: 17:26:01
(UTC+00:00)
Language:

ERS-1 - Orbit

View from above orbital plane
View from above orbital plane
View from above satellite
View from above satellite

Ground track
Ground track

The orbit is defined by the following mean orbital elements,

1 21574U          26063.48399711 +.00000000 +00000-0 +16692-3 0 00008
2 21574  98.7885  81.5877 0031342 216.0960 143.8111 14.39444979    02
Epoch (UTC): 04 March 2026 11:36:57
Eccentricity: 0.0031342
inclination: 98.7885°
perigee height: 738 km
apogee height: 783 km
right ascension of ascending node: 81.5877°
argument of perigee: 216.0960°
revolutions per day: 14.39444979
mean anomaly at epoch: 143.8111°

The dashed part of the orbit path shows where the satellite is in the earth's shadow,  

DLR